Flag for Germany Weather past 2 weeks in Wiesbaden, Hesse, Germany

Now
31 °F

Light freezing rain. Overcast.


Feels Like: 24 °F
Forecast: 24 / 37 °F
Wind: 7 mph from West

Location: Wiesbaden Airport

Current Time: Dec 29, 2014 at 11:30:00 AM

Latest Report: Dec 29, 2014 at 10:58 AM


Visibility: N/A

Pressure: 30.45 "Hg

Humidity: 92%

Dew point: 29 °F

Location of WiesbadenLocation

Historic Weather in Wiesbaden — Graph

°F

Wiesbaden temperature yesterday

Maximum temperature yesterday: 30 °F (at 2:58 PM)
Minimum temperature yesterday: 21 °F (at 11:02 PM)
Average temperature yesterday: 26 °F

Past Weeks' High & Low Weather Summary

 TemperatureHumidityPressure
High55 °F (Dec 18, 9:01 PM)100% (Dec 15, 1:58 AM)30.55 "Hg (Dec 15, 1:58 AM)
Low21 °F (Dec 29, 2:58 AM)46% (Dec 28, 10:58 AM)29.42 "Hg (Dec 27, 3:01 PM)
Average40 °F88%30.11 "Hg
* Reported Dec 14 9:58 AM — Dec 29 9:58 AM, Wiesbaden, Weather by CustomWeather, © 2014

Note: Actual official high and low records may vary slightly from our data, if they occured in-between our weather recording intervals... More about our weather records

Advertising

Wiesbaden weather history for previous 24 hours

 ConditionsComfort  
Time TempWeatherWind HumidityBarometerVisibility
9:58 AM
Dec 29
27 °FOvercast.9 mph96%30.44 "HgN/A
9:03 AM25 °FLight snow. Ice fog.No wind100%30.41 "Hg2 mi
8:58 AM25 °FLight snow. Ice fog.No wind100%30.45 "Hg1 mi
8:04 AM25 °FLight snow. Ice fog.2 mph93%30.39 "Hg5 mi
7:58 AM25 °FLight snow. Ice fog.3 mph93%30.43 "Hg4 mi
6:58 AM25 °FMostly cloudy.9 mph88%30.44 "HgN/A
6:03 AM25 °FMostly cloudy.6 mph80%30.42 "HgN/A
6:02 AM25 °FLight snow. Mostly cloudy.6 mph80%30.42 "HgN/A
4:58 AM23 °FOvercast.10 mph86%30.49 "HgN/A
3:58 AM21 °FClear.5 mph86%30.51 "HgN/A
2:58 AM21 °FPassing clouds.6 mph86%30.54 "HgN/A
1:58 AM21 °FOvercast.3 mph86%30.55 "HgN/A
12:58 AM21 °FPassing clouds.5 mph80%30.55 "HgN/A
11:58 PM
Dec 28
21 °FClear.5 mph86%30.55 "HgN/A
11:02 PM21 °FPassing clouds.7 mph86%30.50 "HgN/A
9:58 PM25 °FPassing clouds.7 mph74%30.54 "HgN/A
8:58 PM25 °FOvercast.6 mph76%30.53 "HgN/A
7:58 PM26 °FClear.6 mph71%30.50 "HgN/A
6:58 PM26 °FClear.8 mph67%30.46 "HgN/A
5:58 PM25 °FClear.8 mph62%30.43 "HgN/A
4:58 PM26 °FClear.9 mph60%30.39 "HgN/A
3:58 PM29 °FSunny.7 mph55%30.34 "HgN/A
2:58 PM30 °FSunny.8 mph49%30.29 "HgN/A
1:58 PM28 °FSunny.5 mph51%30.27 "HgN/A
12:58 PM28 °FSunny.8 mph47%30.24 "HgN/A
11:58 AM28 °FSunny.8 mph52%30.19 "HgN/A
Weather by CustomWeather, © 2014

See weather overviewHow to use our weather pages